User: anonymous   Login
Location: Asheville, NC
(35.6000°N, 82.5500°W)
Time: 00:00:06
(UTC-05:00)
Language:

AIST 2D - Orbit

View from above orbital plane
View from above orbital plane
View from above satellite
View from above satellite

Ground track
Ground track

The orbit data is extracted from the following two-line orbital elements,

1 41465U 16026B   18019.89683912  .00001218  00000-0  41489-4 0  9992
2 41465  97.2359 282.9426 0011978 157.5437 264.3735 15.32233663 96636
Epoch (UTC): 19 January 2018 21:31:26
Eccentricity: 0.0011978
inclination: 97.2359°
perigee height: 461 km
apogee height: 477 km
right ascension of ascending node: 282.9426°
argument of perigee: 157.5437°
revolutions per day: 15.32233663
mean anomaly at epoch: 264.3735°
orbit number at epoch: 9663

The dashed part of the orbit path shows where the satellite is in the earth's shadow,  

DLR